GW5368 Weather Reports


Display with metric or nautical units.
time (UTC)temp
F
wind
direction
speed
MPH
gust
MPH
rain 1hr
in
rain 24hr
in
rain mn
in
humidity
%
barometer
mb
20260507021005 66 360 0.0 0.0 0.00 0.00 0.00 85 1009.4
20260507020503 66 360 0.0 0.0 0.00 0.00 0.00 85 1009.5
20260507020004 67 241 0.0 2.0 0.00 0.00 0.00 85 1009.5
20260507015502 67 360 0.0 2.0 0.00 0.00 0.00 85 1009.8
20260507015002 67 360 0.0 2.0 0.00 0.00 0.00 85 1009.8
20260507014503 67 360 0.0 1.0 0.00 0.00 0.00 84 1009.8
20260507014002 67 360 0.0 0.0 0.00 0.00 0.00 84 1009.7
20260507013502 67 360 0.0 0.0 0.00 0.00 0.00 84 1009.6
20260507013003 67 360 0.0 0.0 0.00 0.00 0.00 83 1009.6
20260507012501 67 360 0.0 0.0 0.00 0.00 0.00 83 1009.5
20260507012003 67 360 0.0 0.0 0.00 0.00 0.00 83 1009.5
20260507011504 68 360 0.0 0.0 0.00 0.00 0.00 82 1009.5
20260507011004 68 360 0.0 0.0 0.00 0.00 0.00 82 1009.7
20260507010502 68 360 0.0 0.0 0.00 0.00 0.00 81 1009.6
20260507010003 68 360 0.0 0.0 0.00 0.00 0.00 81 1009.7
20260507005506 68 360 0.0 1.0 0.00 0.00 0.00 81 1009.6
20260507005002 68 360 0.0 1.0 0.00 0.00 0.00 81 1009.5
20260507004503 68 360 0.0 1.0 0.00 0.00 0.00 81 1009.4
20260507004002 69 360 0.0 0.0 0.00 0.00 0.00 80 1009.3
20260507003501 69 360 0.0 1.0 0.00 0.00 0.00 80 1009.4
20260507003004 69 360 0.0 1.0 0.00 0.00 0.00 80 1009.4
20260507002503 69 360 0.0 1.0 0.00 0.00 0.00 79 1009.4
20260507002002 69 360 0.0 1.0 0.00 0.00 0.00 79 1009.2
20260507001508 70 360 0.0 1.0 0.00 0.00 0.00 79 1009.1
20260507001003 70 360 0.0 2.0 0.00 0.00 0.00 78 1009.1
20260507000503 70 360 0.0 2.0 0.00 0.00 0.00 78 1009.2
20260507000005 70 360 0.0 1.0 0.00 0.00 0.00 78 1009.0
20260506235503 70 360 0.0 1.0 0.00 0.00 0.00 78 1009.0
20260506235002 70 360 0.0 1.0 0.00 0.00 0.00 77 1009.0
20260506234504 70 360 0.0 2.0 0.00 0.00 0.00 77 1008.9
20260506234003 70 360 0.0 2.0 0.00 0.00 0.00 77 1008.9
20260506233503 71 360 0.0 2.0 0.00 0.00 0.00 77 1008.9
20260506233004 71 360 0.0 2.0 0.00 0.00 0.00 77 1009.0
20260506232502 71 360 0.0 2.0 0.00 0.00 0.00 76 1008.8
20260506232002 71 360 0.0 2.0 0.00 0.00 0.00 76 1008.8
20260506231503 71 360 0.0 4.0 0.00 0.00 0.00 76 1008.8
20260506231003 71 360 0.0 4.0 0.00 0.00 0.00 76 1008.9
20260506230503 71 360 0.0 4.0 0.00 0.00 0.00 75 1008.9
20260506230002 71 360 1.0 5.0 0.00 0.00 0.00 75 1008.9
20260506225505 71 360 0.0 5.0 0.00 0.00 0.00 75 1008.9
20260506225003 71 360 0.0 5.0 0.00 0.00 0.00 75 1008.9
20260506224503 71 360 1.0 4.0 0.00 0.00 0.00 75 1009.0
20260506224005 71 360 0.0 4.0 0.00 0.00 0.00 75 1008.9
20260506223503 71 360 0.0 4.0 0.00 0.00 0.00 75 1008.8
20260506223004 71 360 1.0 3.0 0.00 0.00 0.00 74 1008.9
20260506222503 72 360 1.0 4.0 0.00 0.00 0.00 74 1008.9
20260506222002 71 360 1.0 6.0 0.00 0.00 0.00 74 1008.9
20260506221505 71 360 2.0 6.0 0.00 0.00 0.00 74 1008.9
20260506221002 71 360 1.0 5.0 0.00 0.00 0.00 74 1008.8
20260506220502 71 360 1.0 6.0 0.00 0.00 0.00 74 1008.7
20260506220004 72 360 2.0 6.0 0.00 0.00 0.00 74 1008.6
20260506215503 72 360 1.0 5.0 0.00 0.00 0.00 74 1008.7
20260506215003 72 360 1.0 6.0 0.00 0.00 0.00 74 1008.8
20260506214503 72 360 2.0 6.0 0.00 0.00 0.00 74 1008.6
20260506214003 72 360 1.0 6.0 0.00 0.00 0.00 74 1008.6
20260506213503 71 360 2.0 6.0 0.00 0.00 0.00 74 1008.6
20260506213009 71 360 2.0 8.0 0.00 0.00 0.00 75 1008.7
20260506212503 71 360 2.0 8.0 0.00 0.00 0.00 75 1008.4
20260506212005 71 360 1.0 8.0 0.00 0.00 0.00 75 1008.4
20260506211503 71 360 2.0 8.0 0.00 0.00 0.00 75 1008.5
20260506211004 71 360 2.0 8.0 0.00 0.00 0.00 75 1008.5
20260506210503 71 360 1.0 6.0 0.00 0.00 0.00 75 1008.4
20260506210008 71 360 2.0 8.0 0.00 0.00 0.00 75 1008.4
20260506205503 71 360 1.0 8.0 0.00 0.00 0.00 75 1008.5
20260506205002 71 360 2.0 8.0 0.00 0.00 0.00 75 1008.6
20260506204504 71 360 2.0 6.0 0.00 0.00 0.00 74 1008.6
20260506204007 71 360 2.0 6.0 0.00 0.00 0.00 74 1008.4
20260506203503 72 360 2.0 5.0 0.00 0.00 0.00 74 1008.3
20260506203003 72 360 1.0 5.0 0.00 0.00 0.00 74 1008.3
20260506202504 72 360 2.0 5.0 0.00 0.00 0.00 73 1008.2
20260506202003 72 360 2.0 6.0 0.00 0.00 0.00 73 1008.4
20260506201506 72 360 2.0 6.0 0.00 0.00 0.00 73 1008.3
20260506201003 72 360 3.0 6.0 0.00 0.00 0.00 73 1008.6
20260506200504 72 360 1.0 6.0 0.00 0.00 0.00 73 1008.8
20260506200019 72 360 2.0 6.0 0.00 0.00 0.00 73 1008.9
20260506195503 73 360 2.0 5.0 0.00 0.00 0.00 73 1009.1
20260506195003 73 228 1.0 7.0 0.00 0.00 0.00 73 1009.2
20260506194505 73 360 1.0 7.0 0.00 0.00 0.00 73 1009.0
20260506194003 73 223 2.0 7.0 0.00 0.00 0.00 72 1008.8
20260506193503 73 237 3.0 7.0 0.00 0.00 0.00 72 1008.7
20260506193008 73 360 2.0 7.0 0.00 0.00 0.00 72 1008.6
20260506192503 72 227 2.0 7.0 0.00 0.00 0.00 73 1008.9
20260506192004 72 114 2.0 9.0 0.00 0.00 0.00 73 1009.1
20260506191510 72 214 2.0 11.0 0.00 0.00 0.00 73 1009.2
20260506191003 72 223 4.0 11.0 0.00 0.00 0.00 73 1009.2
20260506190504 72 236 1.0 5.0 0.00 0.00 0.00 75 1009.3
20260506190008 72 231 2.0 8.0 0.00 0.00 0.00 75 1009.4
20260506185504 71 360 1.0 8.0 0.00 0.00 0.00 75 1009.6
20260506185004 71 360 2.0 12.0 0.00 0.00 0.00 76 1009.5
20260506184509 71 360 4.0 12.0 0.00 0.00 0.00 76 1009.5
20260506184005 71 360 1.0 6.0 0.00 0.00 0.00 78 1009.6
20260506183505 70 360 2.0 6.0 0.00 0.00 0.00 78 1009.7
20260506183008 70 360 2.0 6.0 0.00 0.00 0.00 79 1009.8
20260506182504 70 360 3.0 6.0 0.00 0.00 0.00 79 1009.8
20260506182006 69 360 2.0 6.0 0.00 0.00 0.00 80 1009.9
20260506181508 69 360 2.0 8.0 0.00 0.00 0.00 80 1010.2
20260506181004 69 360 2.0 10.0 0.00 0.00 0.00 80 1010.0
20260506180504 69 360 2.0 10.0 0.00 0.00 0.00 81 1010.0
20260506180011 69 360 1.0 5.0 0.00 0.00 0.00 81 1010.1
20260506175503 69 360 2.0 8.0 0.00 0.00 0.00 81 1010.2
20260506175004 69 360 2.0 8.0 0.00 0.00 0.00 81 1010.2
20260506174512 69 360 2.0 8.0 0.00 0.00 0.00 80 1010.0
20260506174004 69 360 2.0 9.0 0.00 0.00 0.00 80 1009.8
20260506173507 69 360 3.0 9.0 0.00 0.00 0.00 80 1010.1
20260506173014 69 360 2.0 9.0 0.00 0.00 0.00 81 1010.1
20260506172504 69 360 1.0 8.0 0.00 0.00 0.00 81 1010.1
20260506172004 69 360 1.0 8.0 0.00 0.00 0.00 80 1010.4
20260506171516 69 360 2.0 8.0 0.00 0.00 0.00 80 1010.6
20260506171002 69 360 2.0 6.0 0.00 0.00 0.00 80 1010.4
20260506170503 69 360 1.0 6.0 0.00 0.00 0.00 80 1010.5
20260506170004 68 360 1.0 6.0 0.00 0.00 0.00 79 1010.5
20260506165503 68 360 2.0 4.0 0.00 0.00 0.00 78 1010.7
20260506165005 69 360 1.0 5.0 0.00 0.00 0.00 77 1010.8
20260506164507 69 360 1.0 6.0 0.00 0.00 0.00 75 1011.1
20260506164004 69 360 1.0 10.0 0.00 0.00 0.00 75 1011.2
20260506163508 70 360 3.0 10.0 0.00 0.00 0.00 73 1011.5
20260506163006 71 360 3.0 11.0 0.00 0.00 0.00 72 1011.5
20260506162504 72 360 4.0 11.0 0.00 0.00 0.00 68 1011.4
20260506162004 72 360 0.0 8.0 0.00 0.00 0.00 68 1011.5
20260506161512 73 360 3.0 8.0 0.00 0.00 0.00 66 1011.5
20260506161003 73 360 3.0 8.0 0.00 0.00 0.00 65 1011.5
20260506160503 73 162 4.0 8.0 0.00 0.00 0.00 64 1011.5
20260506160017 74 231 3.0 7.0 0.00 0.00 0.00 63 1011.5
20260506155503 74 225 3.0 7.0 0.00 0.00 0.00 63 1011.4
20260506155002 74 184 2.0 9.0 0.00 0.00 0.00 64 1011.5
20260506154502 74 173 2.0 9.0 0.00 0.00 0.00 64 1011.6
20260506154005 74 190 2.0 9.0 0.00 0.00 0.00 64 1011.6
20260506153503 74 180 3.0 9.0 0.00 0.00 0.00 62 1011.4
20260506153007 74 194 3.0 9.0 0.00 0.00 0.00 62 1011.6
20260506152503 74 360 3.0 8.0 0.00 0.00 0.00 62 1011.5
20260506152004 74 360 1.0 6.0 0.00 0.00 0.00 64 1011.5
20260506151511 74 360 3.0 6.0 0.00 0.00 0.00 64 1011.6
20260506151002 74 360 1.0 5.0 0.00 0.00 0.00 64 1011.5
20260506150505 73 360 2.0 6.0 0.00 0.00 0.00 64 1011.5
20260506150014 73 360 2.0 6.0 0.00 0.00 0.00 63 1011.7
20260506145507 74 360 2.0 9.0 0.00 0.00 0.00 63 1011.6
20260506145006 74 217 2.0 9.0 0.00 0.00 0.00 63 1011.7
20260506144520 74 179 2.0 9.0 0.00 0.00 0.00 63 1011.6
20260506144007 74 219 3.0 11.0 0.00 0.00 0.00 63 1011.7
20260506143504 74 188 3.0 11.0 0.00 0.00 0.00 64 1011.6
20260506143014 74 242 3.0 8.0 0.00 0.00 0.00 64 1011.6
20260506142503 74 230 2.0 8.0 0.00 0.00 0.00 64 1011.7
20260506142004 73 360 1.0 6.0 0.00 0.00 0.00 65 1011.8
20260506141508 73 360 2.0 7.0 0.00 0.00 0.00 64 1011.8
20260506141006 74 178 1.0 8.0 0.00 0.00 0.00 64 1011.8
20260506140505 73 170 2.0 9.0 0.00 0.00 0.00 65 1011.9
20260506140013 73 223 2.0 9.0 0.00 0.00 0.00 65 1011.9
20260506135507 72 360 3.0 11.0 0.00 0.00 0.00 65 1011.7
20260506135006 72 360 3.0 11.0 0.00 0.00 0.00 65 1011.7
20260506134516 72 360 2.0 9.0 0.00 0.00 0.00 66 1011.9
20260506134008 72 360 2.0 9.0 0.00 0.00 0.00 66 1012.0
20260506133507 72 360 2.0 6.0 0.00 0.00 0.00 67 1012.0
20260506133021 71 360 1.0 6.0 0.00 0.00 0.00 69 1011.9
20260506132508 71 360 2.0 8.0 0.00 0.00 0.00 69 1012.0
20260506132005 70 360 3.0 8.0 0.00 0.00 0.00 69 1012.0
20260506131508 70 360 2.0 5.0 0.00 0.00 0.00 70 1011.9
20260506131004 70 360 2.0 5.0 0.00 0.00 0.00 71 1012.0
20260506130508 69 360 2.0 5.0 0.00 0.00 0.00 72 1012.0
20260506130012 69 360 2.0 8.0 0.00 0.00 0.00 72 1012.1
20260506125504 68 360 2.0 8.0 0.00 0.00 0.00 72 1012.1
20260506125005 68 360 2.0 6.0 0.00 0.00 0.00 73 1012.1
20260506124516 68 360 2.0 6.0 0.00 0.00 0.00 72 1012.2
20260506124005 68 360 2.0 8.0 0.00 0.00 0.00 73 1012.2
20260506123507 68 360 2.0 8.0 0.00 0.00 0.00 73 1012.2
20260506123021 68 360 2.0 6.0 0.00 0.00 0.00 73 1012.3
20260506122510 68 360 1.0 8.0 0.00 0.00 0.00 73 1012.4
20260506122007 67 360 3.0 8.0 0.00 0.00 0.00 73 1012.3
20260506121522 67 360 2.0 6.0 0.00 0.00 0.00 74 1012.4
20260506121008 67 360 2.0 6.0 0.00 0.00 0.00 75 1012.2
20260506120506 66 360 2.0 6.0 0.00 0.00 0.00 75 1012.3
20260506120008 66 360 1.0 5.0 0.00 0.00 0.00 76 1012.3
20260506115505 66 360 1.0 5.0 0.00 0.00 0.00 76 1012.3
20260506115004 65 360 1.0 5.0 0.00 0.00 0.00 76 1012.2
20260506114513 65 360 1.0 4.0 0.00 0.00 0.00 76 1012.2
20260506114005 65 360 1.0 4.0 0.00 0.00 0.00 76 1012.2
20260506113504 65 360 1.0 6.0 0.00 0.00 0.00 76 1012.2
20260506113019 65 360 1.0 6.0 0.00 0.00 0.00 76 1012.2
20260506112510 65 360 1.0 4.0 0.00 0.00 0.00 77 1012.1
20260506112006 65 360 1.0 5.0 0.00 0.00 0.00 77 1012.0
20260506111527 65 360 0.0 5.0 0.00 0.00 0.00 78 1011.9
20260506111006 64 360 1.0 4.0 0.00 0.00 0.00 78 1012.0
20260506110507 64 360 1.0 4.0 0.00 0.00 0.00 79 1012.0
20260506110025 64 360 1.0 4.0 0.00 0.00 0.00 78 1011.8
20260506105512 64 360 1.0 4.0 0.00 0.00 0.00 78 1011.9
20260506105007 64 360 1.0 4.0 0.00 0.00 0.00 78 1011.9
20260506104513 64 360 0.0 3.0 0.00 0.00 0.00 78 1012.0
20260506104002 64 360 1.0 2.0 0.00 0.00 0.00 78 1012.1
20260506103506 64 360 0.0 4.0 0.00 0.00 0.00 78 1012.1
20260506103022 64 360 1.0 5.0 0.00 0.00 0.00 78 1012.2
20260506102507 63 107 1.0 5.0 0.00 0.00 0.00 78 1012.2
20260506102007 63 224 0.0 4.0 0.00 0.00 0.00 78 1012.1
20260506101523 63 231 0.0 4.0 0.00 0.00 0.00 78 1012.1
20260506101010 63 207 1.0 4.0 0.00 0.00 0.00 78 1012.0
20260506100507 63 360 0.0 3.0 0.00 0.00 0.00 77 1012.0
20260506100025 64 200 0.0 3.0 0.00 0.00 0.00 77 1011.8
20260506095508 64 207 1.0 3.0 0.00 0.00 0.00 77 1011.8
20260506095009 64 207 0.0 3.0 0.00 0.00 0.00 77 1011.8
20260506094527 64 360 0.0 3.0 0.00 0.00 0.00 77 1011.8
20260506094009 64 360 0.0 3.0 0.00 0.00 0.00 76 1012.0
20260506093510 64 360 0.0 3.0 0.00 0.00 0.00 76 1012.0
20260506093023 64 360 0.0 3.0 0.00 0.00 0.00 76 1012.0
20260506092506 64 360 0.0 4.0 0.00 0.00 0.00 75 1011.8
20260506092007 64 360 1.0 4.0 0.00 0.00 0.00 75 1011.9
20260506091520 64 360 1.0 5.0 0.00 0.00 0.00 75 1011.9
20260506091007 64 360 0.0 5.0 0.00 0.00 0.00 75 1011.8
20260506090506 64 360 0.0 5.0 0.00 0.00 0.00 75 1011.9
20260506090025 64 360 0.0 5.0 0.00 0.00 0.00 75 1011.9
20260506085507 64 360 1.0 3.0 0.00 0.00 0.00 75 1011.9
20260506085008 64 360 1.0 3.0 0.00 0.00 0.00 75 1012.1
20260506084524 64 360 0.0 3.0 0.00 0.00 0.00 76 1012.1
20260506084012 64 360 0.0 3.0 0.00 0.00 0.00 76 1012.0
20260506083510 64 152 0.0 3.0 0.00 0.00 0.00 76 1012.0
20260506083027 64 213 1.0 3.0 0.00 0.00 0.00 76 1012.0
20260506082515 64 217 1.0 3.0 0.00 0.00 0.00 76 1012.1
20260506082012 64 217 1.0 3.0 0.00 0.00 0.00 76 1012.2
20260506081518 64 159 1.0 4.0 0.00 0.00 0.00 77 1012.2
20260506081004 64 229 1.0 5.0 0.00 0.00 0.00 77 1012.2
20260506080503 64 22 1.0 5.0 0.00 0.00 0.00 77 1012.2
20260506073507 64 186 1.0 4.0 0.00 0.00 0.00 79 1012.2
20260506073011 64 39 1.0 3.0 0.00 0.00 0.00 79 1012.2
20260506072504 64 226 1.0 3.0 0.00 0.00 0.00 79 1012.1
20260506072003 64 188 1.0 3.0 0.00 0.00 0.00 80 1012.1
20260506071514 64 178 1.0 4.0 0.00 0.00 0.00 80 1012.0
20260506071001 64 360 1.0 4.0 0.00 0.00 0.00 80 1012.0
20260506070503 64 75 1.0 4.0 0.00 0.00 0.00 80 1012.1
20260506062503 65 188 0.0 4.0 0.00 0.00 0.00 80 1012.4
20260506062008 65 202 2.0 4.0 0.00 0.00 0.00 80 1012.4
20260506061512 65 185 1.0 5.0 0.00 0.00 0.00 80 1012.4
20260506061006 65 360 1.0 6.0 0.00 0.00 0.00 80 1012.4
20260506060505 65 360 0.0 6.0 0.00 0.00 0.00 80 1012.5
20260506051003 65 360 0.0 3.0 0.00 0.00 0.00 80 1012.8
20260506050502 65 360 0.0 4.0 0.00 0.00 0.00 80 1012.8
20260506045010 65 194 1.0 4.0 0.00 0.00 0.00 80 1012.8
20260506044518 65 192 1.0 4.0 0.00 0.00 0.00 80 1012.9
20260506044006 65 360 1.0 4.0 0.00 0.00 0.00 80 1012.9
20260506043503 65 360 0.0 5.0 0.00 0.00 0.00 80 1012.8
20260506043005 65 360 0.0 5.0 0.00 0.00 0.00 79 1012.8
20260506042503 65 360 0.0 3.0 0.00 0.00 0.00 79 1012.8
20260506042004 66 360 0.0 3.0 0.00 0.00 0.00 79 1012.8
20260506041508 66 360 0.0 2.0 0.00 0.00 0.00 79 1012.8
20260506041003 66 360 0.0 3.0 0.00 0.00 0.00 79 1012.8
20260506040506 66 360 0.0 3.0 0.00 0.00 0.00 79 1012.8
20260506040017 66 360 0.0 3.0 0.00 0.00 0.00 78 1012.8
20260506035503 66 360 0.0 3.0 0.00 0.00 0.00 78 1012.9
20260506035006 66 360 0.0 2.0 0.00 0.00 0.00 78 1012.8
20260506034516 66 360 0.0 2.0 0.00 0.00 0.00 78 1012.9
20260506034009 66 360 0.0 4.0 0.00 0.00 0.00 78 1012.8
20260506033507 66 360 0.0 4.0 0.00 0.00 0.00 77 1012.8
20260506033020 66 360 0.0 3.0 0.00 0.00 0.00 77 1012.8
20260506032508 66 360 0.0 3.0 0.00 0.00 0.00 77 1012.9
20260506032004 67 360 1.0 3.0 0.00 0.00 0.00 77 1012.8
20260506031506 67 360 0.0 3.0 0.00 0.00 0.00 77 1012.8
20260506031005 67 360 1.0 3.0 0.00 0.00 0.00 77 1012.8
20260506030503 67 360 0.0 3.0 0.00 0.00 0.00 76 1012.8
20260506030008 67 360 1.0 3.0 0.00 0.00 0.00 76 1012.8
20260506025506 67 360 0.0 3.0 0.00 0.00 0.00 76 1012.8
20260506025003 67 360 1.0 3.0 0.00 0.00 0.00 76 1012.8
20260506024512 67 360 0.0 3.0 0.00 0.00 0.00 76 1012.8
20260506024003 67 360 0.0 3.0 0.00 0.00 0.00 76 1012.8
20260506023507 67 360 1.0 4.0 0.00 0.00 0.00 75 1012.9
20260506023020 67 360 0.0 4.0 0.00 0.00 0.00 75 1012.8
20260506022507 67 360 0.0 3.0 0.00 0.00 0.00 75 1012.8
20260506022008 67 360 1.0 3.0 0.00 0.00 0.00 74 1012.9
20260506021522 67 360 0.0 3.0 0.00 0.00 0.00 74 1012.8